Tiempo atmosférico en la estación meteorológica de San Bartolome Tirajana, Cuevas del Pinar, Las Palmas (1220 m.)



Fecha
DESCASC
Temp. máxima en grados centígrados (hora)
DESCASC
Temp. mínima en grados centígrados (hora)
DESCASC
Temp. media en grados centígrados
DESCASC
Racha de viento máxima en m/sg (hora)
DESCASC
Velocidad máxima media en intervalos de 10 minutos(hora)
DESCASC
Precipitaciones diarias en mm
DESCASC
Precipitaciones de 00:00 a 06:00 en mm
DESCASC
Precipitaciones de 06:00 a 12:00 en mm
DESCASC
Precipitaciones de 12:00 a 18:00 en mm
DESCASC
Precipitaciones de 18:00 a 24:00 en mm
DESCASC
05-04-2020 19.8 (14:00) 11.4 (02:00) 15.6 9.44 (08:20) 5.28 (08:20) 0 0 0 0 0
04-04-2020 18.7 (15:30) 10.3 (06:00) 14.5 7.78 (00:40) 3.89 (00:40) 0 0 0 0 0
03-04-2020 18.4 (15:40) 10.7 (01:00) 14.5 8.61 (17:20) 5 (15:30) 0 0 0 0 0
02-04-2020 16.9 (16:20) 11.1 (00:00) 14 5 (15:00) 2.78 (11:40) 0 0 0 0 0
01-04-2020 16.8 (13:10) 8.8 (00:00) 12.8 6.11 (14:20) 2.78 (14:20) 0 0 0 0 0
31-03-2020 17.4 (17:50) 8.8 (00:00) 13.1 6.94 (16:50) 3.33 (01:20) 0 0 0 0 0
30-03-2020 17.2 (15:10) 8.5 (00:00) 12.9 8.33 (15:20) 3.61 (15:20) 0 0 0 0 0
29-03-2020 14 (19:00) 7 (00:00) 10.5 5.28 (18:30) 2.5 (17:50) 0 0 0 0 0
28-03-2020 11.4 (12:20) 7.2 (00:00) 9.3 7.78 (01:30) 3.33 (01:10) 0.8 0.6 0 0.2 0
27-03-2020 14 (13:30) 6.5 (00:00) 10.3 6.11 (13:00) 3.33 (14:30) 8 0 0.8 0.6 6.6
26-03-2020 10.4 (11:50) 6.4 (00:00) 8.4 5.56 (17:20) 2.5 (13:20) 0.2 0 0 0.2 0
25-03-2020 11.6 (11:40) 6.4 (00:00) 9 7.5 (00:30) 3.33 (00:50) 0.2 0 0 0.2 0
24-03-2020 13.7 (14:30) 7.8 (00:00) 10.8 11.94 (12:20) 4.17 (11:10) 0.2 0.2 0 0 0
23-03-2020 9.4 (14:20) 5.3 (00:00) 7.3 18.61 (08:40) 7.78 (08:40) 17.2 4.6 11 1 0.6
22-03-2020 15.8 (14:20) 6.4 (01:30) 11.1 14.17 (23:40) 6.67 (23:30) 0.2 0 0 0 0.2
21-03-2020 14.1 (14:00) 6.9 (00:00) 10.5 7.78 (14:30) 4.17 (15:40) 0 0 0 0 0
20-03-2020 16.5 (15:10) 8.2 (00:00) 12.3 13.61 (09:20) 5.83 (07:40) 0 0 0 0 0
19-03-2020 13.7 (13:40) 8.1 (00:00) 10.9 18.06 (01:40) 6.39 (15:20) 0.2 0 0.2 0 0
18-03-2020 13 (15:10) 6.8 (00:00) 9.9 18.33 (23:00) 5 (01:40) 0 0 0 0 0
17-03-2020 15.1 (15:20) 6.1 (00:00) 10.6 10 (22:30) 3.89 (22:30) 0 0 0 0 0
16-03-2020 16 (15:30) 7.9 (00:00) 12 12.22 (06:30) 5.83 (06:30) 0 0 0 0 0
15-03-2020 13.4 (16:00) 6.5 (00:00) 9.9 13.33 (15:40) 5.83 (18:50) 0 0 0 0 0
14-03-2020 16.5 (14:30) 8.6 (00:00) 12.6 5.56 (14:30) 3.06 (10:20) 0 0 0 0 0
13-03-2020 20.6 (11:20) 14.7 (23:20) 17.7 7.78 (13:40) 3.89 (12:40) 0 0 0 0 0
12-03-2020 22.2 (15:10) 15.3 (00:00) 18.8 8.33 (12:10) 3.61 (12:40) 0 0 0 0 0
11-03-2020 21.9 (13:40) 16.4 (00:00) 19.1 8.06 (14:50) 3.61 (10:40) 0 0 0 0 0

Gráficas

Temp. máximas Temp. mínimas Temp. medias Precipitaciones Rachas de viento máximas Velocidades máximas media en intervalos de 10 minutos

Datos horarios

Fecha y hora oficial Temperatura (ºC) Velocidad del viento (km/h) Dirección del viento Racha (km/h) Dirección de racha Precipitación (mm) Presión (hPa) Tendencia (hPa) Humedad (%)
2020-04-09 23:00:00 17.3 3 Sur 9 Sudoeste 0 -- -- 52
2020-04-09 22:00:00 17.9 5 Sudoeste 16 Sudoeste 0 -- -- 54
2020-04-09 21:00:00 18.5 3 Sudeste 17 Oeste 0 -- -- 53
2020-04-09 20:00:00 20.4 8 Nordeste 26 Oeste 0 -- -- 67
2020-04-09 19:00:00 22.8 9 Oeste 19 Oeste 0 -- -- 41
2020-04-09 18:00:00 20.6 9 Norte 18 Nordeste 0 -- -- 68
2020-04-09 17:00:00 20.6 8 Nordeste 20 Norte 0 -- -- 68
2020-04-09 16:00:00 21.8 6 Nordeste 17 Nordeste 0 -- -- 64
2020-04-09 15:00:00 21.5 8 Sudoeste 21 Oeste 0 -- -- 64
2020-04-09 14:00:00 20.7 10 Nordeste 26 Norte 0 -- -- 65
2020-04-09 13:00:00 21.5 10 Noroeste 27 Norte 0 -- -- 56
2020-04-09 12:00:00 21.7 8 Sudoeste 14 Noroeste 0 -- -- 47
2020-04-09 11:00:00 20.8 4 Sudoeste 15 Nordeste 0 -- -- 48
2020-04-09 10:00:00 18.8 3 Oeste 12 Nordeste 0 -- -- 51
2020-04-09 09:00:00 18.3 6 Sudeste 28 Norte 0 -- -- 47
2020-04-09 08:00:00 18.2 7 Nordeste 20 Noroeste 0 -- -- 44
2020-04-09 07:00:00 18 4 Nordeste 15 Nordeste 0 -- -- 52
2020-04-09 06:00:00 17.5 5 Este 12 Noroeste 0 -- -- 53
2020-04-09 05:00:00 17.8 0 Calma 17 Sur 0 -- -- 50
2020-04-09 04:00:00 18.6 6 Nordeste 28 Nordeste 0 -- -- 50
2020-04-09 03:00:00 18.5 5 Sur 19 Norte 0 -- -- 48
2020-04-09 02:00:00 18.8 6 Norte 16 Sur 0 -- -- 49
2020-04-09 01:00:00 19.1 6 Este 25 Noroeste 0 -- -- 48
2020-04-09 00:00:00 19.7 10 Este 33 Este 0 -- -- 46
2020-04-08 23:00:00 20.1 10 Este 37 Nordeste 0 -- -- 44
2020-04-08 22:00:00 20.5 9 Sur 34 Nordeste 0 -- -- 41
2020-04-08 21:00:00 20.3 10 Nordeste 32 Nordeste 0 -- -- 41
2020-04-08 20:00:00 22 7 Noroeste 19 Noroeste 0 -- -- 42
2020-04-08 19:00:00 21.8 6 Nordeste 19 Nordeste 0 -- -- 59
2020-04-08 18:00:00 22.4 6 Norte 25 Nordeste 0 -- -- 56
2020-04-08 17:00:00 22 10 Nordeste 22 Nordeste 0 -- -- 62
2020-04-08 16:00:00 22.5 8 Nordeste 23 Norte 0 -- -- 57
2020-04-08 15:00:00 23.1 8 Sudoeste 26 Nordeste 0 -- -- 56
2020-04-08 14:00:00 23 10 Norte 23 Norte 0 -- -- 52
2020-04-08 13:00:00 22.7 5 Nordeste 17 Nordeste 0 -- -- 44
2020-04-08 12:00:00 22.7 8 Oeste 16 Oeste 0 -- -- 35
2020-04-08 11:00:00 21.8 5 Oeste 13 Sur 0 -- -- 35
2020-04-08 10:00:00 18.9 3 Sudoeste 14 Este 0 -- -- 38
2020-04-08 09:00:00 18.5 4 Sudeste 17 Sudeste 0 -- -- 38
2020-04-08 08:00:00 18.8 7 Este 19 Nordeste 0 -- -- 36
2020-04-08 07:00:00 18.1 7 Este 17 Nordeste 0 -- -- 35
2020-04-08 06:00:00 17.9 8 Nordeste 18 Nordeste 0 -- -- 41
2020-04-08 05:00:00 17.6 4 Este 15 Nordeste 0 -- -- 41
2020-04-08 04:00:00 17.4 0 Calma 14 Nordeste 0 -- -- 40
2020-04-08 03:00:00 17.7 4 Sudeste 12 Este 0 -- -- 38
2020-04-08 02:00:00 16.9 5 Sudoeste 11 Sur 0 -- -- 45
2020-04-08 01:00:00 17.2 0 Calma 14 Norte 0 -- -- 43
2020-04-08 00:00:00 18.8 7 Nordeste 18 Norte 0 -- -- 37
2020-04-07 23:00:00 20.4 13 Norte 34 Nordeste 0 -- -- 32
2020-04-07 22:00:00 18.4 8 Nordeste 26 Nordeste 0 -- -- 44
2020-04-07 21:00:00 18.8 8 Sudeste 28 Este 0 -- -- 37
2020-04-07 20:00:00 21 8 Sur 21 Noroeste 0 -- -- 41
2020-04-07 19:00:00 19.9 4 Nordeste 18 Nordeste 0 -- -- 52
2020-04-07 18:00:00 20.5 9 Nordeste 17 Nordeste 0 -- -- 66
2020-04-07 17:00:00 21.9 6 Oeste 20 Nordeste 0 -- -- 52
2020-04-07 16:00:00 20 10 Nordeste 19 Nordeste 0 -- -- 68
2020-04-07 15:00:00 20.3 8 Oeste 19 Nordeste 0 -- -- 65
2020-04-07 14:00:00 19.5 7 Este 26 Norte 0 -- -- 65
2020-04-07 13:00:00 18.6 10 Norte 18 Nordeste 0 -- -- 67
2020-04-07 12:00:00 17.9 11 Norte 22 Norte 0 -- -- 62
2020-04-07 11:00:00 19 7 Nordeste 17 Nordeste 0 -- -- 41
2020-04-07 10:00:00 17.6 5 Nordeste 15 Este 0 -- -- 35
2020-04-07 09:00:00 16.7 0 Calma 23 Nordeste 0 -- -- 25
2020-04-07 08:00:00 17.2 8 Este 20 Nordeste 0 -- -- 22
2020-04-07 07:00:00 17.1 8 Este 23 Nordeste 0 -- -- 20
2020-04-07 06:00:00 16.9 7 Este 22 Este 0 -- -- 20
2020-04-07 05:00:00 17.4 8 Este 21 Nordeste 0 -- -- 19
2020-04-07 04:00:00 17.6 5 Oeste 19 Noroeste 0 -- -- 19
2020-04-07 03:00:00 17.9 4 Sudoeste 23 Noroeste 0 -- -- 19
2020-04-07 02:00:00 17.8 6 Noroeste 17 Noroeste 0 -- -- 19
2020-04-07 01:00:00 18.5 6 Norte 19 Nordeste 0 -- -- 19
2020-04-07 00:00:00 18.2 8 Nordeste 17 Este 0 -- -- 20
2020-04-06 23:00:00 17.7 0 Calma 9 Sur 0 -- -- 23
2020-04-06 22:00:00 17.9 4 Sur 16 Oeste 0 -- -- 25
2020-04-06 21:00:00 15.7 3 Sur 15 Este 0 -- -- 76
2020-04-06 20:00:00 17.9 6 Noroeste 11 Oeste 0 -- -- 79
2020-04-06 19:00:00 19.6 5 Oeste 15 Noroeste 0 -- -- 73
2020-04-06 18:00:00 19.5 8 Noroeste 17 Noroeste 0 -- -- 73
2020-04-06 17:00:00 18.1 9 Noroeste 20 Nordeste 0 -- -- 78
2020-04-06 16:00:00 18 11 Norte 19 Norte 0 -- -- 79
2020-04-06 15:00:00 18.9 8 Oeste 22 Noroeste 0 -- -- 73
2020-04-06 14:00:00 19.4 8 Este 19 Este 0 -- -- 70
2020-04-06 13:00:00 18.3 10 Nordeste 21 Nordeste 0 -- -- 69
2020-04-06 12:00:00 17.7 11 Nordeste 20 Norte 0 -- -- 66
2020-04-06 11:00:00 19.6 6 Oeste 13 Oeste 0 -- -- 27
2020-04-06 10:00:00 16 4 Sudeste 9 Sudeste 0 -- -- 47
2020-04-06 09:00:00 15.6 3 Sudeste 15 Nordeste 0 -- -- 37
2020-04-06 08:00:00 15.4 6 Este 13 Sudeste 0 -- -- 36
2020-04-06 07:00:00 15.7 4 Este 23 Norte 0 -- -- 39
2020-04-06 06:00:00 16.8 9 Norte 19 Norte 0 -- -- 37
2020-04-06 05:00:00 15.8 4 Sur 14 Nordeste 0 -- -- 45
2020-04-06 04:00:00 15.2 4 Sur 16 Este 0 -- -- 49
2020-04-06 03:00:00 15.2 7 Este 13 Este 0 -- -- 53
2020-04-06 02:00:00 15.5 7 Sudeste 18 Este 0 -- -- 54
2020-04-06 01:00:00 14.3 2 Sudeste 11 Sur 0 -- -- 62
2020-04-06 00:00:00 14.8 6 Sudoeste 14 Sudoeste 0 -- -- 62
2020-04-05 23:00:00 15.3 6 Sur 17 Oeste 0 -- -- 61
2020-04-05 22:00:00 15.3 6 Sur 15 Sudeste 0 -- -- 65
2020-04-05 21:00:00 14.5 5 Sudoeste 10 Sur 0 -- -- 81
2020-04-05 20:00:00 16.6 5 Oeste 14 Oeste 0 -- -- 73
2020-04-05 19:00:00 18.7 7 Oeste 20 Oeste 0 -- -- 65
2020-04-05 18:00:00 19.4 6 Oeste 22 Noroeste 0 -- -- 65
2020-04-05 17:00:00 18.8 10 Noroeste 21 Oeste 0 -- -- 67
2020-04-05 16:00:00 17.7 8 Este 21 Nordeste 0 -- -- 69
2020-04-05 15:00:00 18.4 10 Nordeste 22 Norte 0 -- -- 67
2020-04-05 14:00:00 19.8 10 Oeste 23 Noroeste 0 -- -- 60
2020-04-05 13:00:00 18.3 7 Nordeste 18 Nordeste 0 -- -- 64
2020-04-05 12:00:00 16.8 8 Nordeste 16 Nordeste 0 -- -- 66
2020-04-05 11:00:00 16 9 Nordeste 17 Sudoeste 0 -- -- 65
2020-04-05 10:00:00 16.1 5 Oeste 19 Noroeste 0 -- -- 48
2020-04-05 09:00:00 16 9 Noroeste 34 Oeste 0 -- -- 46
2020-04-05 08:00:00 15.4 9 Noroeste 26 Noroeste 0 -- -- 49
2020-04-05 07:00:00 13.1 6 Este 13 Este 0 -- -- 54
2020-04-05 06:00:00 14.6 4 Sur 25 Noroeste 0 -- -- 40
2020-04-05 05:00:00 13.3 8 Nordeste 13 Nordeste 0 -- -- 44
2020-04-05 04:00:00 12.2 6 Sur 14 Sudoeste 0 -- -- 54
2020-04-05 03:00:00 12.7 9 Sudoeste 18 Sudoeste 0 -- -- 45
2020-04-05 02:00:00 11.4 0 Calma 14 Sur 0 -- -- 57
2020-04-05 01:00:00 12.9 10 Sur 19 Sur 0 -- -- 54
2020-04-05 00:00:00 12.2 0 Calma 12 Sudoeste 0 -- -- 79
2020-04-04 23:00:00 12.5 4 Oeste 12 Sudoeste 0 -- -- 84
2020-04-04 22:00:00 13.3 7 Sudoeste 13 Sudoeste 0 -- -- 64
2020-04-04 21:00:00 13.6 6 Sudoeste 13 Oeste 0 -- -- 82
2020-04-04 20:00:00 15.4 6 Oeste 18 Noroeste 0 -- -- 73
2020-04-04 19:00:00 16.9 9 Noroeste 20 Oeste 0 -- -- 66
2020-04-04 18:00:00 17.8 10 Oeste 23 Noroeste 0 -- -- 61
2020-04-04 17:00:00 18.1 12 Oeste 26 Oeste 0 -- -- 59
2020-04-04 16:00:00 18.4 12 Oeste 23 Oeste 0 -- -- 54
2020-04-04 15:00:00 18.3 8 Oeste 23 Oeste 0 -- -- 51
2020-04-04 14:00:00 17.1 9 Oeste 23 Sudoeste 0 -- -- 44
2020-04-04 13:00:00 16.2 8 Oeste 22 Oeste 0 -- -- 51
2020-04-04 12:00:00 15.3 10 Sudoeste 19 Sudoeste 0 -- -- 51
2020-04-04 11:00:00 14 13 Sudoeste 22 Sudoeste 0 -- -- 59
2020-04-04 10:00:00 11.6 8 Sudoeste 15 Sudoeste 0 -- -- 83
2020-04-04 09:00:00 11.2 9 Sudoeste 20 Sudoeste 0 -- -- 78
2020-04-04 08:00:00 10.9 9 Sudoeste 22 Sudoeste 0 -- -- 72
2020-04-04 07:00:00 10.8 11 Sudoeste 20 Sudoeste 0 -- -- 79
2020-04-04 06:00:00 10.3 11 Sudoeste 18 Sudoeste 0 -- -- 94
2020-04-04 05:00:00 11 13 Sudoeste 23 Sudoeste 0 -- -- 92
2020-04-04 04:00:00 11 10 Sudoeste 22 Oeste 0 -- -- 94
2020-04-04 03:00:00 11.4 12 Sudoeste 20 Sudoeste 0 -- -- 96
2020-04-04 02:00:00 11.5 11 Oeste 22 Noroeste 0 -- -- 95
2020-04-04 01:00:00 11.5 10 Oeste 28 Oeste 0 -- -- 98
2020-04-04 00:00:00 11.7 14 Sudoeste 25 Sudoeste 0 -- -- 97
2020-04-03 23:00:00 12.1 12 Sudoeste 30 Sudoeste 0 -- -- 94
2020-04-03 22:00:00 12.3 16 Sudoeste 28 Sudoeste 0 -- -- 94
2020-04-03 21:00:00 12.2 15 Sudoeste 24 Sudoeste 0 -- -- 93
2020-04-03 20:00:00 12.6 12 Oeste 30 Oeste 0 -- -- 89
2020-04-03 19:00:00 14.2 11 Oeste 29 Sudoeste 0 -- -- 81
2020-04-03 18:00:00 16.6 9 Oeste 31 Sudoeste 0 -- -- 69
2020-04-03 17:00:00 17.7 12 Oeste 26 Sudoeste 0 -- -- 63
2020-04-03 16:00:00 17.4 12 Oeste 29 Sudoeste 0 -- -- 62
2020-04-03 15:00:00 17.5 12 Sudoeste 27 Sudoeste 0 -- -- 39
2020-04-03 14:00:00 16.8 10 Oeste 22 Sudoeste 0 -- -- 48
2020-04-03 13:00:00 15.7 8 Oeste 17 Sudoeste 0 -- -- 53
2020-04-03 12:00:00 15.5 9 Sudoeste 21 Sudoeste 0 -- -- 41
2020-04-03 11:00:00 14.9 7 Oeste 11 Oeste 0 -- -- 45
2020-04-03 10:00:00 13.2 10 Sudoeste 14 Sudoeste 0 -- -- 47
2020-04-03 09:00:00 12 5 Sudoeste 8 Sur 0 -- -- 59
2020-04-03 08:00:00 11.8 5 Sur 10 Sudoeste 0 -- -- 49
2020-04-03 07:00:00 11.6 6 Sur 9 Sur 0 -- -- 56
2020-04-03 06:00:00 12.2 5 Sur 9 Sudoeste 0 -- -- 50
2020-04-03 05:00:00 12.1 3 Sur 6 Sudeste 0 -- -- 52
2020-04-03 04:00:00 12.4 0 Calma 4 Sudeste 0 -- -- 50
2020-04-03 03:00:00 12.4 2 Sudeste 7 Este 0 -- -- 55
2020-04-03 02:00:00 11.7 0 Calma 8 Nordeste 0 -- -- 83
2020-04-03 01:00:00 10.7 0 Calma -- -- 0 -- -- 96
2020-04-03 00:00:00 11.1 0 Calma 7 Nordeste 0 -- -- 96
2020-04-02 23:00:00 11.4 2 Sudoeste 9 Nordeste 0 -- -- 96
2020-04-02 22:00:00 11.5 3 Este 9 Este 0 -- -- 95
2020-04-02 21:00:00 12.3 0 Calma 9 Este 0 -- -- 91
2020-04-02 20:00:00 14.4 5 Norte 14 Oeste 0 -- -- 81
2020-04-02 19:00:00 14.1 8 Nordeste 15 Nordeste 0 -- -- 82
2020-04-02 18:00:00 14.6 7 Norte 17 Nordeste 0 -- -- 81
2020-04-02 17:00:00 15.5 7 Norte 17 Noroeste 0 -- -- 78
2020-04-02 16:00:00 16.1 8 Noroeste 16 Noroeste 0 -- -- 75
2020-04-02 15:00:00 15.2 9 Norte 18 Nordeste 0 -- -- 78
2020-04-02 14:00:00 16.5 6 Sudoeste 15 Sur 0 -- -- 70
2020-04-02 13:00:00 15.7 5 Sudoeste 16 Oeste 0 -- -- 68
2020-04-02 12:00:00 14.7 9 Norte 16 Nordeste 0 -- -- 69
2020-04-02 11:00:00 15 7 Noroeste 14 Nordeste 0 -- -- 52
2020-04-02 10:00:00 13 4 Nordeste 13 Nordeste 0 -- -- 49
2020-04-02 09:00:00 12.3 5 Nordeste 11 Este 0 -- -- 41
2020-04-02 08:00:00 12 4 Sur 9 Sur 0 -- -- 41
2020-04-02 07:00:00 12.1 2 Sur 9 Este 0 -- -- 40
2020-04-02 06:00:00 11.9 2 Este 7 Sur 0 -- -- 42
2020-04-02 05:00:00 12 5 Sur 7 Sur 0 -- -- 45
2020-04-02 04:00:00 12.2 5 Sur 7 Sur 0 -- -- 48
2020-04-02 03:00:00 12.1 5 Sur 9 Sur 0 -- -- 51
2020-04-02 02:00:00 12.4 5 Sur 8 Sudeste 0 -- -- 47
2020-04-02 01:00:00 12.2 6 Sur 9 Sur 0 -- -- 48
2020-04-02 00:00:00 11.4 0 Calma 8 Sudoeste 0 -- -- 69
2020-04-01 23:00:00 11.8 4 Sur 8 Sudoeste 0 -- -- 61
2020-04-01 22:00:00 10.6 0 Calma 5 Sudoeste 0 -- -- 91
2020-04-01 21:00:00 11.8 0 Calma 8 Noroeste 0 -- -- 89
2020-04-01 20:00:00 14 5 Oeste 10 Noroeste 0 -- -- 80
2020-04-01 19:00:00 15.2 5 Oeste 14 Oeste 0 -- -- 76
2020-04-01 18:00:00 15.6 7 Oeste 16 Oeste 0 -- -- 75
2020-04-01 17:00:00 13.5 6 Nordeste 16 Nordeste 0 -- -- 86
2020-04-01 16:00:00 14.2 7 Norte 15 Sudoeste 0 -- -- 82
2020-04-01 15:00:00 14.3 9 Norte 22 Sudoeste 0 -- -- 81
2020-04-01 14:00:00 16.2 6 Sudoeste 17 Norte 0 -- -- 72
2020-04-01 13:00:00 16.5 6 Oeste 15 Nordeste 0 -- -- 64
2020-04-01 12:00:00 15 8 Norte 18 Norte 0 -- -- 74
2020-04-01 11:00:00 13 5 Nordeste 13 Noroeste 0 -- -- 80
2020-04-01 10:00:00 10 0 Calma 4 Oeste 0 -- -- 66
2020-04-01 09:00:00 11.8 0 Calma 4 Nordeste 0 -- -- 44
2020-04-01 08:00:00 11.8 0 Calma 7 Norte 0 -- -- 44
2020-04-01 07:00:00 13.5 5 Sur 7 Sur 0 -- -- 34
2020-04-01 06:00:00 12.8 4 Sudeste 6 Sur 0 -- -- 39
2020-04-01 05:00:00 12.4 0 Calma 8 Este 0 -- -- 43
2020-04-01 04:00:00 11.6 3 Nordeste 13 Este 0 -- -- 78
2020-04-01 03:00:00 9.3 3 Sur 7 Este 0 -- -- 66
2020-04-01 02:00:00 9.4 6 Este 13 Este 0 -- -- 94
2020-04-01 01:00:00 9.7 8 Este 15 Nordeste 0 -- -- 95
2020-04-01 00:00:00 10.4 0 Calma 6 Nordeste 0 -- -- 92
2020-03-31 23:00:00 11 4 Sur 8 Este 0 -- -- 90
2020-03-31 22:00:00 11.3 3 Nordeste 9 Este 0 -- -- 90
2020-03-31 21:00:00 12.3 7 Sudoeste 12 Sudoeste 0 -- -- 90
2020-03-31 20:00:00 13.2 4 Oeste 12 Sudoeste 0 -- -- 88
2020-03-31 19:00:00 15.1 6 Oeste 16 Noroeste 0 -- -- 76
2020-03-31 18:00:00 17.3 8 Oeste 22 Oeste 0 -- -- 66
2020-03-31 17:00:00 16.6 10 Sudoeste 25 Sudoeste 0 -- -- 68
2020-03-31 16:00:00 16.7 9 Oeste 19 Oeste 0 -- -- 68
2020-03-31 15:00:00 16.6 6 Sudoeste 19 Noroeste 0 -- -- 69
2020-03-31 14:00:00 14.4 8 Nordeste 18 Sudoeste 0 -- -- 82
2020-03-31 13:00:00 15.2 9 Sudoeste 18 Oeste 0 -- -- 75
2020-03-31 12:00:00 15.1 6 Oeste 13 Nordeste 0 -- -- 70
2020-03-31 11:00:00 13.5 4 Norte 15 Este 0 -- -- 70
2020-03-31 10:00:00 11.1 2 Oeste 14 Nordeste 0 -- -- 77
2020-03-31 09:00:00 10.2 3 Noroeste 12 Sudeste 0 -- -- 80
2020-03-31 08:00:00 10 4 Sudoeste 14 Sudoeste 0 -- -- 66
2020-03-31 07:00:00 11.8 9 Sudoeste 14 Sudoeste 0 -- -- 50
2020-03-31 06:00:00 11.3 10 Sur 17 Sur 0 -- -- 58
2020-03-31 05:00:00 9 0 Calma 7 Oeste 0 -- -- 83
2020-03-31 04:00:00 9.4 0 Calma 16 Sudoeste 0 -- -- 80
2020-03-31 03:00:00 11.7 9 Sur 14 Sur 0 -- -- 57
2020-03-31 02:00:00 12.2 10 Sur 17 Sur 0 -- -- 57
2020-03-31 01:00:00 12.3 9 Sur 14 Sudoeste 0 -- -- 59
2020-03-31 00:00:00 12.2 8 Sudoeste 13 Sudoeste 0 -- -- 59
2020-03-30 23:00:00 12.3 9 Sudoeste 14 Sur 0 -- -- 59
2020-03-30 22:00:00 12.4 10 Sudoeste 17 Sudoeste 0 -- -- 60
2020-03-30 21:00:00 12.7 8 Sudoeste 16 Sudoeste 0 -- -- 61
2020-03-30 20:00:00 14.8 12 Sudoeste 19 Sudoeste 0 -- -- 54
2020-03-30 19:00:00 16.9 9 Oeste 19 Oeste 0 -- -- 55
2020-03-30 18:00:00 16.9 9 Sudoeste 22 Oeste 0 -- -- 60
2020-03-30 17:00:00 16.9 10 Sudoeste 22 Sudoeste 0 -- -- 56
2020-03-30 16:00:00 16.7 10 Oeste 30 Noroeste 0 -- -- 57
2020-03-30 15:00:00 16.9 9 Oeste 23 Noroeste 0 -- -- 57
2020-03-30 14:00:00 16.8 8 Oeste 21 Noroeste 0 -- -- 58
2020-03-30 13:00:00 15.9 8 Oeste 20 Oeste 0 -- -- 52
2020-03-30 12:00:00 15.6 8 Oeste 15 Sudoeste 0 -- -- 50
2020-03-30 11:00:00 15 6 Oeste 14 Oeste 0 -- -- 50
2020-03-30 10:00:00 12.1 4 Sudoeste 9 Sur 0 -- -- 56
2020-03-30 09:00:00 12 5 Sur 7 Sur 0 -- -- 55
2020-03-30 08:00:00 11.8 5 Sur 8 Sur 0 -- -- 56
2020-03-30 07:00:00 11.8 5 Sur 8 Sur 0 -- -- 56
2020-03-30 06:00:00 12.4 5 Sur 8 Sur 0 -- -- 53
2020-03-30 05:00:00 11.7 5 Sudeste 9 Este 0 -- -- 58
2020-03-30 04:00:00 12.3 3 Este 9 Este 0 -- -- 55
2020-03-30 03:00:00 10.5 0 Calma -- -- 0 -- -- 68
2020-03-30 02:00:00 11 0 Calma 8 Este 0 -- -- 69
2020-03-30 01:00:00 8.5 0 Calma 5 Oeste 0 -- -- 94
2020-03-30 00:00:00 11.3 0 Calma 6 Sudeste 0 -- -- 67
2020-03-29 23:00:00 9.9 0 Calma 6 Sudeste 0 -- -- 80
2020-03-29 22:00:00 9.5 0 Calma 6 Nordeste 0 -- -- 93
2020-03-29 21:00:00 10.1 5 Nordeste 9 Sudoeste 0 -- -- 93
2020-03-29 20:00:00 12.8 6 Oeste 15 Noroeste 0 -- -- 79
2020-03-29 19:00:00 14 6 Oeste 19 Oeste 0 -- -- 73
2020-03-29 18:00:00 13.4 7 Oeste 17 Oeste 0 -- -- 82
2020-03-29 17:00:00 11.4 5 Oeste 12 Noroeste 0 -- -- 90
2020-03-29 16:00:00 11 4 Noroeste 12 Noroeste 0 -- -- 91
2020-03-29 15:00:00 11.2 5 Sudoeste 16 Sudoeste 0 -- -- 90
2020-03-29 14:00:00 11.8 7 Sur 15 Sur 0 -- -- 86
2020-03-29 13:00:00 11.9 4 Sudoeste 11 Noroeste 0 -- -- 81
2020-03-29 12:00:00 11.3 4 Oeste 15 Norte 0 -- -- 80
2020-03-29 11:00:00 10.8 5 Norte 16 Nordeste 0 -- -- 77
2020-03-29 10:00:00 7.8 0 Calma 6 Nordeste 0 -- -- 81
2020-03-29 09:00:00 7.4 3 Este 7 Nordeste 0 -- -- 82
2020-03-29 08:00:00 7.2 5 Este 8 Este 0 -- -- 81
2020-03-29 07:00:00 7 4 Sudeste 6 Sudeste 0 -- -- 80
2020-03-29 06:00:00 7.3 2 Sudeste 10 Este 0 -- -- 77
2020-03-29 05:00:00 7.1 6 Este 13 Este 0 -- -- 81
2020-03-29 04:00:00 7.4 5 Este 10 Este 0 -- -- 80
2020-03-29 00:00:00 7.5 3 Nordeste 7 Este 0 -- -- 86
2020-03-28 23:00:00 7.8 3 Sur 8 Este 0 -- -- 79
2020-03-28 22:00:00 7.9 6 Este 10 Este 0 -- -- 93
2020-03-28 21:00:00 8.8 4 Nordeste 8 Este 0 -- -- 96
2020-03-28 20:00:00 9.2 3 Nordeste 7 Este 0 -- -- 97
2020-03-28 19:00:00 9.7 0 Calma 8 Sudoeste 0 -- -- 96
2020-03-28 18:00:00 9.6 3 Nordeste 9 Nordeste 0 -- -- 96
2020-03-28 17:00:00 9.9 2 Oeste 12 Sur 0 -- -- 96
2020-03-28 16:00:00 9.9 5 Sudoeste 11 Sudeste 0.2 -- -- 96
2020-03-28 15:00:00 10.5 8 Sudoeste 15 Sudoeste 0 -- -- 94
2020-03-28 14:00:00 10.1 8 Sudoeste 14 Sudoeste 0 -- -- 94
2020-03-28 13:00:00 10.7 7 Sudoeste 17 Sudoeste 0 -- -- 91
2020-03-28 12:00:00 11.1 4 Sudoeste 12 Sudoeste 0 -- -- 84
2020-03-28 11:00:00 10.8 3 Oeste 9 Oeste 0 -- -- 82
2020-03-28 10:00:00 9 0 Calma 7 Sur 0 -- -- 74
2020-03-28 09:00:00 8.4 4 Sur 8 Sudeste 0 -- -- 72
2020-03-28 08:00:00 7.7 5 Nordeste 10 Este 0 -- -- 83
2020-03-28 07:00:00 7.5 5 Este 22 Oeste 0 -- -- 71
2020-03-28 06:00:00 7.7 5 Sudeste 18 Noroeste 0 -- -- 70
2020-03-28 05:00:00 8.2 8 Noroeste 24 Noroeste 0 -- -- 70
2020-03-28 04:00:00 8.3 8 Oeste 21 Nordeste 0 -- -- 72
2020-03-28 03:00:00 7.6 4 Sur 22 Norte 0 -- -- 83
2020-03-28 02:00:00 8.4 8 Noroeste 28 Noroeste 0 -- -- 79
2020-03-28 01:00:00 8.4 5 Oeste 17 Nordeste 0.6 -- -- 94
2020-03-28 00:00:00 8.2 5 Este 9 Nordeste 1.4 -- -- 96
2020-03-27 23:00:00 8.2 5 Este 11 Nordeste 0 -- -- 96
2020-03-27 22:00:00 8 5 Sudoeste 11 Sudoeste 0 -- -- 97
2020-03-27 21:00:00 8.2 6 Sudoeste 12 Sur 0 -- -- 97
2020-03-27 20:00:00 8.5 10 Sudoeste 21 Sudoeste 2 -- -- 97
2020-03-27 19:00:00 9.4 6 Sudoeste 17 Noroeste 3.2 -- -- 96
2020-03-27 18:00:00 9.9 6 Oeste 14 Este 0.4 -- -- 98
2020-03-27 17:00:00 10.1 7 Nordeste 17 Este 0 -- -- 97
2020-03-27 16:00:00 9.9 5 Nordeste 19 Nordeste 0.2 -- -- 96
2020-03-27 15:00:00 10.1 9 Nordeste 18 Nordeste 0 -- -- 92
2020-03-27 14:00:00 12.8 10 Sur 18 Oeste 0 -- -- 74
2020-03-27 13:00:00 12.8 10 Noroeste 22 Noroeste 0 -- -- 60
2020-03-27 12:00:00 11.9 7 Oeste 17 Sudoeste 0 -- -- 78
2020-03-27 11:00:00 9.3 3 Sudoeste 11 Oeste 0.8 -- -- 94
2020-03-27 10:00:00 9.4 5 Oeste 10 Sur 0 -- -- 89
2020-03-27 09:00:00 8.9 5 Sudoeste 10 Noroeste 0 -- -- 86
2020-03-27 08:00:00 6.9 0 Calma 12 Norte 0 -- -- 87
2020-03-27 07:00:00 6.7 3 Sudeste 10 Nordeste 0 -- -- 87
2020-03-27 06:00:00 7.1 4 Sur 11 Sudoeste 0 -- -- 91
2020-03-27 05:00:00 7 0 Calma 8 Sur 0 -- -- 89
2020-03-27 04:00:00 7.1 5 Sur 7 Sudoeste 0 -- -- 84
2020-03-27 03:00:00 7 3 Este 9 Nordeste 0 -- -- 82
2020-03-27 02:00:00 6.8 4 Este 10 Sur 0 -- -- 80
2020-03-27 01:00:00 7 4 Oeste 21 Oeste 0 -- -- 82
2020-03-27 00:00:00 6.9 0 Calma 12 Oeste 0 -- -- 84
2020-03-26 23:00:00 7.6 3 Sudoeste 18 Norte 0 -- -- 80
2020-03-26 22:00:00 7.9 5 Oeste 17 Noroeste 0 -- -- 82
2020-03-26 21:00:00 8 6 Sudoeste 16 Oeste 0 -- -- 87
2020-03-26 20:00:00 8.3 5 Sudoeste 12 Oeste 0 -- -- 87
2020-03-26 19:00:00 8.9 3 Oeste 15 Sudoeste 0 -- -- 92
2020-03-26 18:00:00 9.4 6 Sudoeste 20 Oeste 0.2 -- -- 94
2020-03-26 17:00:00 10.2 8 Oeste 15 Oeste 0 -- -- 87
2020-03-26 16:00:00 9.9 6 Oeste 13 Oeste 0 -- -- 89
2020-03-26 15:00:00 9.9 6 Oeste 14 Sudoeste 0 -- -- 87
2020-03-26 14:00:00 9.8 8 Oeste 17 Sudoeste 0 -- -- 89
2020-03-26 13:00:00 9.4 8 Sudoeste 14 Sudoeste 0 -- -- 87
2020-03-26 12:00:00 10.3 4 Oeste 12 Nordeste 0 -- -- 76
2020-03-26 11:00:00 9.6 6 Sudoeste 15 Oeste 0 -- -- 78
2020-03-26 10:00:00 9.2 4 Noroeste 13 Noroeste 0 -- -- 78
2020-03-26 09:00:00 7.7 0 Calma 9 Nordeste 0 -- -- 86
2020-03-26 08:00:00 7.5 4 Nordeste 10 Oeste 0 -- -- 75
2020-03-26 07:00:00 6.8 5 Este 15 Este 0 -- -- 78
2020-03-26 06:00:00 7.3 5 Sur 10 Noroeste 0 -- -- 74
2020-03-26 05:00:00 7 4 Sur 11 Nordeste 0 -- -- 78
2020-03-26 04:00:00 7.8 3 Noroeste 10 Nordeste 0 -- -- 76
2020-03-26 03:00:00 7.5 0 Calma 8 Norte 0 -- -- 89
2020-03-26 02:00:00 7.4 2 Sur 9 Este 0 -- -- 86
2020-03-26 01:00:00 6.7 3 Sur 9 Sur 0 -- -- 94
2020-03-26 00:00:00 6.4 0 Calma 9 Este 0 -- -- 94
2020-03-25 23:00:00 6.7 2 Este 7 Sur 0 -- -- 93
2020-03-25 22:00:00 7.1 4 Sudoeste 9 Nordeste 0 -- -- 89
2020-03-25 21:00:00 8.3 7 Nordeste 19 Nordeste 0 -- -- 74
2020-03-25 20:00:00 8.4 3 Sudeste 9 Sudoeste 0 -- -- 90
2020-03-25 19:00:00 9 6 Sudoeste 13 Oeste 0 -- -- 89
2020-03-25 18:00:00 9.3 6 Sudoeste 15 Sudoeste 0 -- -- 87
2020-03-25 17:00:00 9.6 7 Oeste 14 Oeste 0 -- -- 88
2020-03-25 16:00:00 9.4 5 Sudoeste 12 Sudoeste 0 -- -- 92
2020-03-25 15:00:00 9.3 6 Oeste 12 Oeste 0.2 -- -- 93
2020-03-25 14:00:00 9.3 7 Sudoeste 18 Sudoeste 0 -- -- 90
2020-03-25 13:00:00 11 11 Sudoeste 21 Sudoeste 0 -- -- 80
2020-03-25 12:00:00 10.6 11 Sudoeste 18 Sudoeste 0 -- -- 76
2020-03-25 11:00:00 11.2 5 Sudoeste 19 Nordeste 0 -- -- 61
2020-03-25 10:00:00 10.3 8 Nordeste 21 Nordeste 0 -- -- 61
2020-03-25 09:00:00 8.6 6 Norte 17 Nordeste 0 -- -- 70
2020-03-25 08:00:00 8.1 4 Norte 22 Nordeste 0 -- -- 72
2020-03-25 07:00:00 7.8 9 Norte 19 Norte 0 -- -- 72
2020-03-25 06:00:00 7.9 4 Nordeste 26 Nordeste 0 -- -- 75
2020-03-25 05:00:00 8 6 Este 15 Sudeste 0 -- -- 76
2020-03-25 04:00:00 8.2 6 Este 23 Oeste 0 -- -- 76
2020-03-25 03:00:00 8.5 5 Noroeste 24 Noroeste 0 -- -- 77
2020-03-25 02:00:00 8.6 5 Oeste 24 Oeste 0 -- -- 79
2020-03-25 01:00:00 8.6 8 Norte 27 Este 0 -- -- 75
2020-03-25 00:00:00 8.3 8 Sur 24 Norte 0 -- -- 73
2020-03-24 23:00:00 8.2 7 Este 23 Oeste 0 -- -- 72
2020-03-24 22:00:00 8.7 7 Oeste 21 Oeste 0 -- -- 76
2020-03-24 21:00:00 9.2 10 Sur 24 Sudoeste 0 -- -- 76
2020-03-24 20:00:00 9.3 8 Oeste 29 Oeste 0 -- -- 76
2020-03-24 19:00:00 9.8 10 Oeste 29 Noroeste 0 -- -- 76
2020-03-24 18:00:00 10.4 6 Oeste 29 Sudoeste 0 -- -- 77
2020-03-24 17:00:00 12.4 11 Oeste 35 Norte 0 -- -- 69
2020-03-24 16:00:00 13.6 15 Noroeste 36 Oeste 0 -- -- 64
2020-03-24 15:00:00 13 14 Oeste 37 Oeste 0 -- -- 66
2020-03-24 14:00:00 13.1 9 Noroeste 32 Este 0 -- -- 58
2020-03-24 13:00:00 11.5 12 Nordeste 43 Oeste 0 -- -- 64
2020-03-24 12:00:00 10.6 12 Sudoeste 39 Oeste 0 -- -- 71
2020-03-24 11:00:00 9.9 10 Oeste 36 Noroeste 0 -- -- 75
2020-03-24 10:00:00 10 9 Oeste 35 Noroeste 0 -- -- 76
2020-03-24 09:00:00 8.6 9 Oeste 32 Oeste 0 -- -- 80
2020-03-24 08:00:00 8.2 10 Oeste 30 Noroeste 0 -- -- 85
2020-03-24 07:00:00 8 13 Norte 32 Noroeste 0 -- -- 81
2020-03-24 06:00:00 8.1 6 Sudoeste 35 Nordeste 0.2 -- -- 83
2020-03-24 05:00:00 8.4 13 Nordeste 36 Nordeste 0 -- -- 82
2020-03-24 04:00:00 8.3 10 Oeste 27 Oeste 0 -- -- 83
2020-03-24 03:00:00 8.2 8 Sudoeste 32 Oeste 0 -- -- 84
2020-03-24 02:00:00 8.2 11 Noroeste 40 Noroeste 0 -- -- 82
2020-03-24 01:00:00 8.1 10 Norte 31 Noroeste 0 -- -- 79
2020-03-24 00:00:00 8.3 11 Oeste 41 Oeste 0.2 -- -- 84
2020-03-23 23:00:00 8 10 Oeste 34 Oeste 0.2 -- -- 83
2020-03-23 22:00:00 8.2 8 Sudoeste 35 Norte 0.2 -- -- 82
2020-03-23 21:00:00 8.2 10 Oeste 42 Norte 0 -- -- 80
2020-03-23 20:00:00 8 13 Noroeste 35 Oeste 0 -- -- 82
2020-03-23 19:00:00 7.9 11 Oeste 46 Oeste 0 -- -- 80
2020-03-23 18:00:00 8.8 9 Oeste 39 Noroeste 0 -- -- 81
2020-03-23 17:00:00 9.4 10 Oeste 39 Este 0 -- -- 78
2020-03-23 16:00:00 8.9 13 Oeste 33 Oeste 0.6 -- -- 80
2020-03-23 15:00:00 9 13 Oeste 34 Oeste 0.2 -- -- 83
2020-03-23 14:00:00 9.1 13 Sur 40 Sudeste 0 -- -- 82
2020-03-23 13:00:00 8.3 21 Nordeste 63 Noroeste 0.2 -- -- 82
2020-03-23 12:00:00 7.7 15 Noroeste 45 Este 1.4 -- -- 85
2020-03-23 11:00:00 6.9 11 Oeste 36 Oeste 1.8 -- -- 89
2020-03-23 10:00:00 6.3 13 Oeste 48 Norte 1.8 -- -- 88
2020-03-23 09:00:00 5.8 26 Noroeste 67 Noroeste 2.6 -- -- 86
2020-03-23 08:00:00 6 19 Noroeste 58 Nordeste 1 -- -- 87
2020-03-23 07:00:00 5.4 13 Oeste 43 Sudeste 2.4 -- -- 93
2020-03-23 06:00:00 5.3 15 Oeste 47 Noroeste 3.4 -- -- 92
2020-03-23 05:00:00 5.6 21 Oeste 57 Noroeste 0.6 -- -- 89
2020-03-23 04:00:00 6 23 Oeste 45 Sudoeste 0.6 -- -- 87
2020-03-23 03:00:00 6.8 19 Oeste 45 Noroeste 0 -- -- 79
2020-03-23 02:00:00 6.9 14 Oeste 45 Oeste 0 -- -- 85
2020-03-23 01:00:00 7.5 16 Oeste 51 Noroeste 0 -- -- 83
2020-03-23 00:00:00 7.3 15 Oeste 51 Oeste 0 -- -- 79
2020-03-22 23:00:00 7.6 18 Oeste 43 Oeste 0 -- -- 77
2020-03-22 22:00:00 7.8 15 Noroeste 50 Norte 0 -- -- 77
2020-03-22 21:00:00 8.2 19 Noroeste 46 Norte 0 -- -- 69
2020-03-22 20:00:00 8.1 13 Noroeste 32 Noroeste 0.2 -- -- 87
2020-03-22 19:00:00 9.2 10 Sudoeste 21 Sudoeste 0 -- -- 88
2020-03-22 18:00:00 11 10 Oeste 21 Sudoeste 0 -- -- 78
2020-03-22 17:00:00 13.8 9 Oeste 30 Noroeste 0 -- -- 59
2020-03-22 16:00:00 14.6 11 Oeste 26 Noroeste 0 -- -- 42
2020-03-22 15:00:00 14 10 Oeste 27 Oeste 0 -- -- 56
2020-03-22 14:00:00 15.3 11 Oeste 24 Sudoeste 0 -- -- 41
2020-03-22 13:00:00 13.1 9 Oeste 22 Sudoeste 0 -- -- 47
2020-03-22 12:00:00 11.8 8 Oeste 20 Noroeste 0 -- -- 62
2020-03-22 11:00:00 9.8 8 Oeste 17 Noroeste 0 -- -- 76
2020-03-22 10:00:00 8.5 5 Noroeste 22 Sudoeste 0 -- -- 85
2020-03-22 09:00:00 8.1 8 Este 22 Nordeste 0 -- -- 80
2020-03-22 08:00:00 7.1 8 Sudeste 26 Nordeste 0 -- -- 83
2020-03-22 07:00:00 7.1 5 Nordeste 20 Norte 0 -- -- 85
2020-03-22 06:00:00 7.1 4 Norte 23 Norte 0 -- -- 83
2020-03-22 05:00:00 7.1 5 Nordeste 14 Nordeste 0 -- -- 83
2020-03-22 04:00:00 7 5 Este 22 Noroeste 0 -- -- 81
2020-03-22 03:00:00 6.9 6 Noroeste 17 Nordeste 0 -- -- 78
2020-03-22 02:00:00 6.6 8 Nordeste 23 Norte 0 -- -- 78
2020-03-22 01:00:00 6.8 4 Sudoeste 22 Norte 0 -- -- 78
2020-03-22 00:00:00 7.6 8 Nordeste 25 Nordeste 0 -- -- 79
2020-03-21 23:00:00 7.9 3 Sudoeste 15 Oeste 0 -- -- 81
2020-03-21 22:00:00 7.9 6 Nordeste 21 Noroeste 0 -- -- 76
2020-03-21 21:00:00 8 6 Norte 19 Noroeste 0 -- -- 75
2020-03-21 20:00:00 8.9 5 Norte 13 Norte 0 -- -- 86
2020-03-21 19:00:00 11 4 Sur 16 Noroeste 0 -- -- 61
2020-03-21 18:00:00 12.7 9 Oeste 25 Sudoeste 0 -- -- 60
2020-03-21 17:00:00 13.2 10 Oeste 24 Sudoeste 0 -- -- 64
2020-03-21 16:00:00 12 13 Sudoeste 24 Sudoeste 0 -- -- 69
2020-03-21 15:00:00 12.7 14 Sudoeste 28 Sudoeste 0 -- -- 66
2020-03-21 14:00:00 14.1 9 Sudoeste 23 Oeste 0 -- -- 59
2020-03-21 13:00:00 12.9 10 Sudoeste 22 Sudoeste 0 -- -- 64
2020-03-21 12:00:00 13.1 9 Oeste 21 Oeste 0 -- -- 60
2020-03-21 11:00:00 10.6 7 Sudoeste 14 Sudoeste 0 -- -- 70
2020-03-21 10:00:00 8.6 4 Noroeste 12 Sudoeste 0 -- -- 78
2020-03-21 09:00:00 7.9 5 Norte 14 Norte 0 -- -- 87
2020-03-21 08:00:00 7.3 5 Este 9 Norte 0 -- -- 89
2020-03-21 07:00:00 7.2 0 Calma 4 Sudoeste 0 -- -- 80
2020-03-21 06:00:00 7.6 3 Sur 6 Sur 0 -- -- 83
2020-03-21 05:00:00 7.9 0 Calma 7 Este 0 -- -- 91
2020-03-21 04:00:00 7.7 4 Este 6 Sudeste 0 -- -- 91
2020-03-21 03:00:00 7.1 0 Calma 6 Sudeste 0 -- -- 90
2020-03-21 02:00:00 7.4 3 Sudeste 8 Sudeste 0 -- -- 86
2020-03-21 01:00:00 7.9 0 Calma 8 Sudoeste 0 -- -- 86
2020-03-21 00:00:00 8.2 0 Calma 9 Este 0 -- -- 87
2020-03-20 23:00:00 9.2 5 Sudoeste 10 Sur 0 -- -- 87
2020-03-20 22:00:00 9.5 4 Este 22 Nordeste 0 -- -- 86
2020-03-20 21:00:00 10.1 6 Sudoeste 17 Nordeste 0 -- -- 87
2020-03-20 20:00:00 10.5 5 Sudoeste 21 Norte 0 -- -- 84
2020-03-20 19:00:00 11.3 8 Noroeste 33 Noroeste 0 -- -- 77
2020-03-20 18:00:00 12.7 12 Norte 34 Nordeste 0 -- -- 61
2020-03-20 17:00:00 14.5 8 Oeste 24 Norte 0 -- -- 63
2020-03-20 16:00:00 15.2 12 Norte 27 Norte 0 -- -- 25
2020-03-20 15:00:00 16.2 8 Oeste 37 Noroeste 0 -- -- 29
2020-03-20 14:00:00 14.2 10 Sur 19 Sur 0 -- -- 72
2020-03-20 13:00:00 14.6 10 Sudoeste 19 Sur 0 -- -- 67
2020-03-20 12:00:00 14.6 6 Sur 29 Norte 0 -- -- 47
2020-03-20 11:00:00 13 8 Noroeste 30 Norte 0 -- -- 59
2020-03-20 10:00:00 11 8 Sur 49 Norte 0 -- -- 70
2020-03-20 09:00:00 9.7 10 Noroeste 41 Este 0 -- -- 74
2020-03-20 08:00:00 10 17 Norte 48 Nordeste 0 -- -- 77
2020-03-20 07:00:00 9.6 6 Nordeste 30 Norte 0 -- -- 69
2020-03-20 06:00:00 9.7 7 Este 30 Norte 0 -- -- 76
2020-03-20 05:00:00 9.6 12 Nordeste 37 Norte 0 -- -- 79
2020-03-20 04:00:00 9.8 7 Sur 24 Este 0 -- -- 78
2020-03-20 03:00:00 10.1 12 Sudeste 40 Este 0 -- -- 77
2020-03-20 02:00:00 9.9 11 Este 36 Sur 0 -- -- 76
2020-03-20 01:00:00 9.8 11 Este 39 Este 0 -- -- 77
2020-03-20 00:00:00 9.8 12 Este 37 Este 0 -- -- 80
2020-03-19 23:00:00 10 11 Sudoeste 39 Este 0 -- -- 79
2020-03-19 22:00:00 10.3 10 Sur 31 Sudoeste 0 -- -- 77
2020-03-19 21:00:00 10.3 14 Sudoeste 31 Sudoeste 0 -- -- 73
2020-03-19 20:00:00 10.3 11 Sudoeste 32 Oeste 0 -- -- 72
2020-03-19 19:00:00 10.7 8 Sudoeste 36 Sudeste 0 -- -- 69
2020-03-19 18:00:00 12.1 11 Noroeste 45 Oeste 0 -- -- 65
2020-03-19 17:00:00 12.8 14 Noroeste 30 Oeste 0 -- -- 62
2020-03-19 16:00:00 12.7 8 Noroeste 44 Noroeste 0 -- -- 60
2020-03-19 15:00:00 13.5 15 Nordeste 40 Nordeste 0 -- -- 53
2020-03-19 14:00:00 13.3 11 Este 45 Este 0 -- -- 51
2020-03-19 13:00:00 13 9 Sur 51 Nordeste 0 -- -- 58
2020-03-19 12:00:00 11.4 16 Norte 56 Nordeste 0 -- -- 58
2020-03-19 11:00:00 11.6 16 Noroeste 54 Nordeste 0 -- -- 76
2020-03-19 10:00:00 10.9 7 Nordeste 30 Este 0.2 -- -- 82
2020-03-19 09:00:00 10.3 10 Norte 40 Nordeste 0 -- -- 78
2020-03-19 08:00:00 10 19 Nordeste 50 Nordeste 0 -- -- 78
2020-03-19 07:00:00 9.8 16 Noroeste 47 Nordeste 0 -- -- 78
2020-03-19 06:00:00 9.2 15 Norte 53 Noroeste 0 -- -- 76
2020-03-19 05:00:00 8.6 19 Noroeste 47 Noroeste 0 -- -- 84
2020-03-19 04:00:00 8.3 18 Norte 58 Nordeste 0 -- -- 82
2020-03-19 03:00:00 8.6 23 Norte 53 Nordeste 0 -- -- 76
2020-03-19 02:00:00 9 19 Norte 65 Noroeste 0 -- -- 77
2020-03-19 01:00:00 8.5 14 Noroeste 50 Noroeste 0 -- -- 84
2020-03-19 00:00:00 8.1 13 Oeste 46 Noroeste 0 -- -- 85
2020-03-18 23:00:00 8 15 Oeste 66 Oeste 0 -- -- 79
2020-03-18 22:00:00 7.7 13 Oeste 43 Oeste 0 -- -- 75
2020-03-18 21:00:00 8.1 13 Oeste 49 Oeste 0 -- -- 83
2020-03-18 20:00:00 8.5 14 Noroeste 40 Noroeste 0 -- -- 82
2020-03-18 19:00:00 8.9 13 Noroeste 39 Nordeste 0 -- -- 76
2020-03-18 18:00:00 10.3 10 Sur 30 Sudoeste 0 -- -- 62
2020-03-18 17:00:00 10.3 10 Sudoeste 35 Oeste 0 -- -- 70
2020-03-18 16:00:00 11.4 14 Sudoeste 31 Sudoeste 0 -- -- 59
2020-03-18 15:00:00 12.6 11 Sudoeste 37 Oeste 0 -- -- 54
2020-03-18 14:00:00 11.2 9 Oeste 31 Noroeste 0 -- -- 57
2020-03-18 13:00:00 11.3 12 Sudoeste 32 Oeste 0 -- -- 61
2020-03-18 12:00:00 10 12 Sudoeste 42 Oeste 0 -- -- 69
2020-03-18 11:00:00 9.3 8 Sudeste 24 Sudoeste 0 -- -- 71
2020-03-18 10:00:00 8.1 12 Sudoeste 42 Nordeste 0 -- -- 72
2020-03-18 09:00:00 7.7 8 Sur 39 Oeste 0 -- -- 76
2020-03-18 08:00:00 7.2 10 Sudeste 35 Sur 0 -- -- 78
2020-03-18 07:00:00 7 17 Este 40 Nordeste 0 -- -- 87
2020-03-18 06:00:00 7.7 13 Norte 50 Nordeste 0 -- -- 82
2020-03-18 05:00:00 7.7 9 Norte 45 Norte 0 -- -- 80
2020-03-18 04:00:00 7.8 14 Nordeste 40 Nordeste 0 -- -- 79
2020-03-18 03:00:00 7 6 Sudeste 39 Nordeste 0 -- -- 82
2020-03-18 02:00:00 7.7 12 Sudeste 42 Nordeste 0 -- -- 80
2020-03-18 01:00:00 8.2 11 Este 32 Norte 0 -- -- 75
2020-03-18 00:00:00 8.3 8 Sudeste 22 Norte 0 -- -- 79
2020-03-17 23:00:00 8.8 11 Sudeste 36 Norte 0 -- -- 76
2020-03-17 22:00:00 8.3 7 Nordeste 15 Noroeste 0 -- -- 83
2020-03-17 21:00:00 8.5 3 Este 10 Este 0 -- -- 86
2020-03-17 20:00:00 9.1 4 Este 30 Nordeste 0 -- -- 77
2020-03-17 19:00:00 10.7 4 Nordeste 18 Nordeste 0 -- -- 67
2020-03-17 18:00:00 12.8 6 Norte 18 Noroeste 0 -- -- 70
2020-03-17 17:00:00 14.5 6 Oeste 18 Oeste 0 -- -- 63
2020-03-17 16:00:00 14.8 5 Sudoeste 18 Sudoeste 0 -- -- 64
2020-03-17 15:00:00 14.3 5 Sudeste 17 Sudoeste 0 -- -- 64
2020-03-17 14:00:00 14.3 5 Sudoeste 22 Sudoeste 0 -- -- 63
2020-03-17 13:00:00 13.8 6 Oeste 19 Sudoeste 0 -- -- 61
2020-03-17 12:00:00 12.7 6 Oeste 15 Oeste 0 -- -- 64
2020-03-17 11:00:00 10.7 6 Sudoeste 12 Oeste 0 -- -- 70
2020-03-17 10:00:00 8.6 6 Oeste 11 Noroeste 0 -- -- 81
2020-03-17 09:00:00 7.3 4 Oeste 8 Sudoeste 0 -- -- 90
2020-03-17 08:00:00 6.8 0 Calma 5 Nordeste 0 -- -- 94
2020-03-17 07:00:00 6.1 2 Sudeste 5 Sudeste 0 -- -- 93
2020-03-17 06:00:00 6.5 0 Calma 6 Nordeste 0 -- -- 90
2020-03-17 05:00:00 7.2 0 Calma 6 Sudoeste 0 -- -- 85
2020-03-17 04:00:00 7 2 Sur 5 Sudoeste 0 -- -- 92
2020-03-17 03:00:00 7.3 0 Calma 6 Sudoeste 0 -- -- 93
2020-03-17 02:00:00 7.4 0 Calma 9 Sur 0 -- -- 91
2020-03-17 01:00:00 8.1 2 Sur 8 Este 0 -- -- 92
2020-03-17 00:00:00 8.6 5 Sudoeste 10 Sudoeste 0 -- -- 91
2020-03-16 23:00:00 8.4 2 Sudoeste 10 Sudoeste 0 -- -- 88
2020-03-16 22:00:00 8.5 4 Sudeste 9 Este 0 -- -- 84
2020-03-16 21:00:00 9.3 6 Sur 17 Sur 0 -- -- 86
2020-03-16 20:00:00 10.2 4 Sur 14 Este 0 -- -- 81
2020-03-16 19:00:00 12.4 6 Sur 14 Sudoeste 0 -- -- 72
2020-03-16 18:00:00 14 8 Sudoeste 19 Sudoeste 0 -- -- 66
2020-03-16 17:00:00 14.9 8 Sudoeste 18 Sudoeste 0 -- -- 60
2020-03-16 16:00:00 15.6 8 Sur 23 Este 0 -- -- 57
2020-03-16 15:00:00 15.5 10 Sudoeste 24 Noroeste 0 -- -- 53
2020-03-16 14:00:00 14.8 6 Sudoeste 24 Noroeste 0 -- -- 59
2020-03-16 13:00:00 14.3 12 Sur 22 Sudoeste 0 -- -- 66
2020-03-16 12:00:00 12.4 6 Oeste 13 Noroeste 0 -- -- 73
2020-03-16 11:00:00 11.5 6 Sudoeste 16 Sudoeste 0 -- -- 74
2020-03-16 10:00:00 10.1 9 Sur 18 Sudoeste 0 -- -- 76
2020-03-16 09:00:00 8.5 4 Sur 18 Sudeste 0 -- -- 81
2020-03-16 08:00:00 8.1 6 Sur 24 Nordeste 0 -- -- 81
2020-03-16 07:00:00 8.7 11 Norte 44 Nordeste 0 -- -- 72
2020-03-16 06:00:00 8.6 15 Norte 37 Nordeste 0 -- -- 79
2020-03-16 05:00:00 8.6 18 Norte 39 Nordeste 0 -- -- 73
2020-03-16 04:00:00 8.2 10 Sur 21 Sur 0 -- -- 82
2020-03-16 03:00:00 8.4 8 Sur 12 Sur 0 -- -- 80
2020-03-16 02:00:00 8.4 7 Sudoeste 15 Sur 0 -- -- 88
2020-03-16 01:00:00 8.5 4 Sur 11 Sur 0 -- -- 87
2020-03-16 00:00:00 8.8 6 Sudeste 14 Este 0 -- -- 80
2020-03-15 23:00:00 8.8 8 Sur 23 Sur 0 -- -- 86
2020-03-15 22:00:00 9.3 3 Noroeste 11 Sur 0 -- -- 84
2020-03-15 21:00:00 9.3 4 Sudoeste 14 Sudoeste 0 -- -- 87
2020-03-15 20:00:00 9.7 3 Sudeste 21 Norte 0 -- -- 80
2020-03-15 19:00:00 10 11 Nordeste 46 Nordeste 0 -- -- 72
2020-03-15 18:00:00 10 14 Norte 32 Norte 0 -- -- 71
2020-03-15 17:00:00 11.8 9 Norte 28 Oeste 0 -- -- 71
2020-03-15 16:00:00 13.4 9 Norte 48 Nordeste 0 -- -- 56
2020-03-15 15:00:00 12.7 10 Noroeste 34 Noroeste 0 -- -- 56
2020-03-15 14:00:00 11.9 14 Noroeste 30 Norte 0 -- -- 62
2020-03-15 13:00:00 11.8 9 Noroeste 31 Noroeste 0 -- -- 66
2020-03-15 12:00:00 10.4 14 Norte 28 Noroeste 0 -- -- 68
2020-03-15 11:00:00 9.9 17 Noroeste 32 Norte 0 -- -- 71
2020-03-15 10:00:00 9.8 3 Oeste 13 Oeste 0 -- -- 75
2020-03-15 09:00:00 8.5 5 Noroeste 11 Norte 0 -- -- 84
2020-03-15 08:00:00 6.7 3 Este 8 Nordeste 0 -- -- 91
2020-03-15 07:00:00 6.6 0 Calma 5 Sudeste 0 -- -- 89
2020-03-15 06:00:00 6.9 3 Sudeste 8 Nordeste 0 -- -- 89
2020-03-15 05:00:00 7.3 4 Nordeste 11 Nordeste 0 -- -- 86
2020-03-15 04:00:00 7.1 3 Este 7 Este 0 -- -- 85
2020-03-15 03:00:00 7.4 3 Nordeste 10 Este 0 -- -- 77
2020-03-15 02:00:00 7.4 3 Este 14 Este 0 -- -- 89
2020-03-15 01:00:00 7.8 5 Nordeste 11 Este 0 -- -- 91
2020-03-15 00:00:00 8.6 3 Sur 9 Sudoeste 0 -- -- 59
2020-03-14 23:00:00 9.6 0 Calma 9 Sudoeste 0 -- -- 47
2020-03-14 22:00:00 9.6 6 Sur 9 Sur 0 -- -- 56
2020-03-14 21:00:00 9.8 4 Sudoeste 10 Este 0 -- -- 74
2020-03-14 20:00:00 10.7 5 Este 9 Nordeste 0 -- -- 85
2020-03-14 19:00:00 12.4 4 Sudoeste 16 Sudoeste 0 -- -- 70
2020-03-14 18:00:00 14.8 6 Oeste 16 Sudoeste 0 -- -- 67
2020-03-14 17:00:00 15.6 9 Sudoeste 19 Oeste 0 -- -- 68
2020-03-14 16:00:00 15.8 9 Noroeste 18 Oeste 0 -- -- 69
2020-03-14 15:00:00 15.8 8 Sudoeste 20 Noroeste 0 -- -- 69
2020-03-14 14:00:00 15.8 8 Sur 18 Sudoeste 0 -- -- 71
2020-03-14 13:00:00 15.4 6 Sudoeste 19 Noroeste 0 -- -- 71
2020-03-14 12:00:00 15.9 8 Oeste 16 Noroeste 0 -- -- 66
2020-03-14 11:00:00 14.8 8 Noroeste 16 Nordeste 0 -- -- 68
2020-03-14 10:00:00 14.9 4 Noroeste 13 Nordeste 0 -- -- 38
2020-03-14 09:00:00 14.2 7 Este 12 Nordeste 0 -- -- 35
2020-03-14 08:00:00 14.4 6 Sur 17 Sudoeste 0 -- -- 19
2020-03-14 07:00:00 13.7 10 Sur 16 Sur 0 -- -- 19
2020-03-14 06:00:00 14 8 Sur 14 Sur 0 -- -- 19
2020-03-14 05:00:00 13.9 4 Sur 9 Sur 0 -- -- 20
2020-03-14 04:00:00 13.9 6 Sur 10 Sur 0 -- -- 19
2020-03-14 03:00:00 14 6 Sur 10 Sur 0 -- -- 23
2020-03-14 02:00:00 13.9 5 Sur 8 Sur 0 -- -- 28
2020-03-14 01:00:00 14.3 5 Sur 8 Sur 0 -- -- 35
2020-03-14 00:00:00 14.7 4 Este 5 Sudeste 0 -- -- 32
2020-03-13 23:00:00 15 3 Sur 5 Sur 0 -- -- 41
2020-03-13 22:00:00 15.1 2 Sur 4 Sur 0 -- -- 33
2020-03-13 21:00:00 15.2 0 Calma 6 Sur 0 -- -- 42
2020-03-13 20:00:00 15.2 4 Sur 7 Oeste 0 -- -- 42
2020-03-13 19:00:00 16.9 4 Oeste 12 Nordeste 0 -- -- 40
2020-03-13 18:00:00 17.6 6 Nordeste 13 Norte 0 -- -- 42
2020-03-13 17:00:00 18.7 6 Noroeste 18 Oeste 0 -- -- 38
2020-03-13 16:00:00 19.3 10 Noroeste 22 Nordeste 0 -- -- 54
2020-03-13 15:00:00 18.9 10 Nordeste 24 Nordeste 0 -- -- 32
2020-03-13 14:00:00 19.5 8 Nordeste 28 Nordeste 0 -- -- 28
2020-03-13 13:00:00 20.6 7 Oeste 24 Norte 0 -- -- 26
2020-03-13 12:00:00 20.3 5 Sur 15 Sudoeste 0 -- -- 26
2020-03-13 11:00:00 20.4 6 Sur 12 Sudoeste 0 -- -- 19
2020-03-13 10:00:00 19.1 3 Sur 6 Sur 0 -- -- 19
2020-03-13 09:00:00 17.1 4 Sudeste 6 Sudeste 0 -- -- 20
2020-03-13 08:00:00 16.5 0 Calma 5 Este 0 -- -- 21
2020-03-13 07:00:00 16.2 4 Sudeste 6 Sudeste 0 -- -- 21
2020-03-13 06:00:00 16.3 4 Este 6 Este 0 -- -- 21
2020-03-13 05:00:00 16.5 4 Sudeste 8 Sudeste 0 -- -- 20
2020-03-13 04:00:00 16.5 2 Sudeste 5 Este 0 -- -- 21
2020-03-13 03:00:00 16.5 3 Este 5 Este 0 -- -- 21
2020-03-13 02:00:00 16.8 0 Calma 5 Este 0 -- -- 21
2020-03-13 01:00:00 16.6 0 Calma 5 Sudeste 0 -- -- 22
2020-03-13 00:00:00 16.9 4 Sudeste 6 Sudeste 0 -- -- 23
2020-03-12 23:00:00 16.7 4 Este 6 Este 0 -- -- 25
2020-03-12 22:00:00 16.9 4 Este 6 Sudeste 0 -- -- 23
2020-03-12 21:00:00 17.2 4 Sudeste 7 Este 0 -- -- 24
2020-03-12 20:00:00 17.7 3 Este 6 Nordeste 0 -- -- 22
2020-03-12 19:00:00 19.3 4 Este 13 Este 0 -- -- 21
2020-03-12 18:00:00 20.4 8 Nordeste 18 Nordeste 0 -- -- 27
2020-03-12 17:00:00 21.8 6 Sudoeste 22 Sudoeste 0 -- -- 21
2020-03-12 16:00:00 21.9 7 Oeste 20 Sudoeste 0 -- -- 19
2020-03-12 15:00:00 22 7 Oeste 22 Sudoeste 0 -- -- 19
2020-03-12 14:00:00 21.6 10 Sudoeste 26 Oeste 0 -- -- 19
2020-03-12 13:00:00 21.3 10 Oeste 30 Norte 0 -- -- 19
2020-03-12 12:00:00 20.4 9 Norte 28 Nordeste 0 -- -- 19
2020-03-12 11:00:00 20.1 12 Nordeste 28 Este 0 -- -- 18
2020-03-12 10:00:00 19.3 6 Noroeste 27 Este 0 -- -- 16
2020-03-12 09:00:00 17.5 9 Este 21 Este 0 -- -- 16
2020-03-12 08:00:00 16.9 7 Noroeste 19 Oeste 0 -- -- 14
2020-03-12 07:00:00 16 6 Sur 19 Sur 0 -- -- 14
2020-03-12 06:00:00 15.6 4 Sur 16 Sur 0 -- -- 15
2020-03-12 05:00:00 15.9 4 Este 11 Este 0 -- -- 16
2020-03-12 04:00:00 16.5 4 Sudeste 10 Este 0 -- -- 15
2020-03-12 03:00:00 16.9 4 Sudeste 8 Este 0 -- -- 16
2020-03-12 02:00:00 16.9 3 Sudeste 9 Sudeste 0 -- -- 16
2020-03-12 01:00:00 17 4 Este 9 Este 0 -- -- 15
2020-03-12 00:00:00 17 4 Este 6 Nordeste 0 -- -- 16
2020-03-11 23:00:00 16.9 4 Este 8 Este 0 -- -- 16
2020-03-11 22:00:00 17.1 4 Sudeste 6 Sudeste 0 -- -- 15
2020-03-11 21:00:00 17.5 0 Calma 5 Sudeste 0 -- -- 16
2020-03-11 20:00:00 18.1 3 Sudeste 7 Este 0 -- -- 14
2020-03-11 19:00:00 19.7 3 Este 15 Nordeste 0 -- -- 14
2020-03-11 18:00:00 20.4 6 Nordeste 18 Norte 0 -- -- 12
2020-03-11 17:00:00 20.6 7 Sudoeste 18 Oeste 0 -- -- 12
2020-03-11 16:00:00 21.6 9 Oeste 23 Sudoeste 0 -- -- 11
2020-03-11 15:00:00 21 9 Noroeste 29 Sudoeste 0 -- -- 11
2020-03-11 14:00:00 21.6 9 Sur 23 Sudoeste 0 -- -- 13
2020-03-11 13:00:00 21 9 Oeste 24 Norte 0 -- -- 13
2020-03-11 12:00:00 20.3 7 Norte 22 Norte 0 -- -- 15
2020-03-11 11:00:00 19.4 12 Norte 25 Norte 0 -- -- 17
2020-03-11 10:00:00 18 8 Sudeste 19 Este 0 -- -- 18
2020-03-11 09:00:00 17.4 6 Este 15 Este 0 -- -- 17
2020-03-11 08:00:00 17.3 6 Este 15 Este 0 -- -- 14
2020-03-11 07:00:00 17.2 5 Este 11 Este 0 -- -- 15
2020-03-11 06:00:00 16.8 4 Sudeste 7 Sudeste 0 -- -- 14
2020-03-11 05:00:00 16.6 5 Sudeste 8 Sudeste 0 -- -- 13
2020-03-11 04:00:00 16.7 5 Sudeste 9 Este 0 -- -- 13
2020-03-11 03:00:00 16.7 5 Este 10 Este 0 -- -- 13
2020-03-11 02:00:00 16.8 5 Sudeste 10 Este 0 -- -- 12
2020-03-11 01:00:00 16.6 5 Sudeste 10 Este 0 -- -- 11
2020-03-11 00:00:00 16.7 5 Sudeste 10 Sudeste 0 -- -- 10